QPF
0.00 0.00 0.00 0.00 0.00 0.00 0.00 0.00 0.00 0.00 0.00 0.00 0.00 0.00 0.00 0.00 0.00 0.00 0.00 0.00 0.00 0.00 0.00 0.00 0.00 0.00 0.00 0.00 0.00 0.00 0.00 0.00 0.00 0.00 0.00 0.00 0.00 0.00 0.00 0.00 0.00 0.00 0.00 0.00 0.00 0.00 0.00
0.00 0.00 0.00 0.00 0.00 0.00 0.00 0.00 0.00 0.00 0.00 0.00 0.00 0.00 0.00 0.00 0.00 0.00 0.00 0.00 0.00 0.00 0.00 0.00 0.00 0.00 0.00 0.00 0.00 0.00 0.00 0.00 0.00 0.00 0.00 0.00 0.00 0.00 0.00 0.00 0.00 0.00 0.00 0.00 0.00 0.00 0.00
0.00 0.00 0.00 0.00 0.00 0.00 0.00 0.00 0.00 0.00 0.00 0.00 0.00 0.00 0.00 0.00 0.00 0.00 0.00 0.00 0.00 0.00 0.00 0.00 0.00 0.00 0.00 0.00 0.00 0.00 0.00 0.00 0.00 0.00 0.00 0.00 0.00 0.00 0.00 0.00 0.00 0.00 0.00 0.00 0.00 0.00 0.00
0.00 0.00 0.00 0.00 0.00 0.00 0.00 0.00 0.00 0.00 0.00 0.00 0.00 0.00 0.00 0.00 0.00 0.00 0.00 0.00 0.00 0.00 0.00 0.00 0.00 0.00 0.00 0.00 0.00 0.00 0.00 0.00 0.00 0.00 0.00 0.00 0.00 0.00 0.00 0.00 0.00 0.00 0.00 0.00 0.00 0.00 0.00
0.00 0.00 0.00 0.00 0.00 0.00 0.00 0.00 0.00 0.00 0.00 0.00 0.00 0.00 0.00 0.00 0.00 0.00 0.00 0.00 0.00 0.00 0.00 0.00 0.00 0.00 0.00 0.00 0.00 0.00 0.00 0.00 0.00 0.00 0.00 0.00 0.00 0.00 0.00 0.00 0.00 0.00 0.00 0.00 0.00 0.00 0.00
0.00 0.00 0.00 0.00 0.00 0.00 0.00 0.00 0.00 0.00 0.00 0.00 0.00 0.00 0.00 0.00 0.00 0.00 0.00 0.00 0.00 0.00 0.00 0.00 0.00 0.00 0.00 0.00 0.00 0.00 0.00 0.00 0.00 0.00 0.00 0.00 0.00 0.00 0.00 0.00 0.00 0.00 0.00 0.00 0.00 0.00 0.00
0.00 0.00 0.00 0.00 0.00 0.00 0.00 0.00 0.00 0.00 0.00 0.00 0.00 0.00 0.00 0.00 0.00 0.00 0.00 0.00 0.00 0.00 0.00 0.00 0.00 0.00 0.00 0.00 0.00 0.00 0.00 0.00 0.00 0.00 0.00 0.00 0.00 0.00 0.00 0.00 0.00 0.00 0.00 0.00 0.00 0.00 0.00
0.00 0.00 0.00 0.00 0.00 0.00 0.00 0.00 0.00 0.00 0.00 0.00 0.00 0.00 0.00 0.00 0.00 0.00 0.00 0.00 0.00 0.00 0.00 0.00 0.00 0.00 0.00 0.00 0.00 0.00 0.00 0.00 0.00 0.00 0.00 0.00 0.00 0.00 0.00 0.00 0.00 0.00 0.00 0.00 0.00 0.00 0.00
0.00 0.00 0.00 0.00 0.00 0.00 0.00 0.00 0.00 0.00 0.00 0.00 0.00 0.00 0.00 0.00 0.00 0.00 0.00 0.00 0.00 0.00 0.00 0.00 0.00 0.00 0.00 0.00 0.00 0.00 0.00 0.00 0.00 0.00 0.00 0.00 0.00 0.00 0.00 0.00 0.00 0.00 0.00 0.00 0.00 0.00 0.00
0.00 0.00 0.00 0.00 0.00 0.00 0.00 0.00 0.00 0.00 0.00 0.00 0.00 0.00 0.00 0.00 0.00 0.00 0.00 0.00 0.00 0.00 0.00 0.00 0.00 0.00 0.00 0.00 0.00 0.00 0.00 0.00 0.00 0.00 0.00 0.00 0.00 0.00 0.00 0.00 0.00 0.00 0.00 0.00 0.00 0.00 0.00
0.00 0.00 0.00 0.00 0.00 0.00 0.00 0.00 0.00 0.00 0.00 0.00 0.00 0.00 0.00 0.00 0.00 0.00 0.00 0.00 0.00 0.00 0.00 0.00 0.00 0.00 0.00 0.00 0.00 0.00 0.00 0.00 0.00 0.00 0.00 0.00 0.00 0.00 0.00 0.00 0.00 0.00 0.00 0.00 0.00 0.00 0.00
0.00 0.00 0.00 0.00 0.00 0.00 0.00 0.00 0.00 0.00 0.00 0.00 0.00 0.00 0.00 0.00 0.00 0.00 0.00 0.00 0.00 0.00 0.00 0.00 0.00 0.00 0.00 0.00 0.00 0.00 0.00 0.00 0.00 0.00 0.00 0.00 0.00 0.00 0.00 0.00 0.00 0.00 0.00 0.00 0.00 0.00 0.00
0.00 0.00 0.00 0.00 0.00 0.00 0.00 0.00 0.00 0.00 0.00 0.00 0.00 0.00 0.00 0.00 0.00 0.00 0.00 0.00 0.00 0.00 0.00 0.00 0.00 0.00 0.00 0.00 0.00 0.00 0.00 0.00 0.00 0.00 0.00 0.00 0.00 0.00 0.00 0.00 0.00 0.00 0.00 0.00 0.00 0.00 0.00
0.02 0.00 0.00 0.00 0.00 0.00 0.00 0.00 0.00 0.00 0.00 0.00 0.00 0.00 0.00 0.00 0.00 0.00 0.00 0.00 0.00 0.00 0.00 0.00 0.00 0.00 0.00 0.00 0.00 0.00 0.00 0.00 0.00 0.00 0.00 0.00 0.00 0.00 0.00 0.00 0.00 0.00 0.00 0.00 0.00 0.00 0.00
0.03 0.01 0.00 0.00 0.00 0.00 0.00 0.00 0.00 0.00 0.00 0.00 0.00 0.00 0.00 0.00 0.00 0.00 0.00 0.00 0.00 0.00 0.00 0.00 0.00 0.00 0.00 0.00 0.00 0.00 0.00 0.00 0.00 0.00 0.00 0.00 0.00 0.00 0.00 0.00 0.00 0.00 0.00 0.00 0.00 0.00 0.00
0.02 0.02 0.01 0.00 0.00 0.00 0.00 0.00 0.00 0.00 0.00 0.00 0.00 0.00 0.00 0.00 0.00 0.00 0.00 0.00 0.00 0.00 0.00 0.00 0.00 0.00 0.00 0.00 0.00 0.00 0.00 0.00 0.00 0.00 0.00 0.00 0.00 0.00 0.00 0.00 0.00 0.00 0.00 0.00 0.00 0.00 0.00
0.03 0.02 0.01 0.00 0.00 0.00 0.00 0.00 0.00 0.00 0.00 0.00 0.00 0.00 0.00 0.00 0.00 0.00 0.00 0.00 0.00 0.00 0.00 0.00 0.00 0.00 0.00 0.00 0.00 0.00 0.00 0.00 0.00 0.00 0.00 0.00 0.00 0.00 0.00 0.00 0.00 0.00 0.00 0.00 0.00 0.00 0.00
0.06 0.04 0.03 0.01 0.00 0.00 0.00 0.00 0.00 0.00 0.00 0.00 0.00 0.00 0.00 0.00 0.00 0.00 0.00 0.00 0.00 0.00 0.00 0.00 0.00 0.00 0.00 0.00 0.00 0.00 0.00 0.00 0.00 0.00 0.00 0.00 0.00 0.00 0.00 0.00 0.00 0.00 0.00 0.00 0.00 0.00 0.00
0.05 0.05 0.02 0.01 0.00 0.00 0.00 0.00 0.00 0.00 0.00 0.00 0.00 0.00 0.00 0.00 0.00 0.00 0.00 0.00 0.00 0.00 0.00 0.00 0.00 0.00 0.00 0.00 0.00 0.00 0.00 0.00 0.00 0.00 0.00 0.00 0.00 0.00 0.00 0.00 0.00 0.00 0.00 0.00 0.00 0.00 0.00
0.01 0.01 0.01 0.01 0.00 0.00 0.00 0.00 0.00 0.00 0.00 0.00 0.00 0.00 0.00 0.00 0.00 0.00 0.00 0.00 0.00 0.00 0.00 0.00 0.00 0.00 0.00 0.00 0.00 0.00 0.00 0.00 0.00 0.00 0.00 0.00 0.00 0.00 0.00 0.00 0.00 0.00 0.00 0.00 0.00 0.00 0.00
0.01 0.01 0.01 0.01 0.01 0.00 0.01 0.01 0.01 0.01 0.00 0.00 0.00 0.00 0.00 0.00 0.00 0.00 0.00 0.00 0.00 0.00 0.00 0.00 0.00 0.00 0.00 0.00 0.00 0.00 0.00 0.00 0.00 0.00 0.00 0.00 0.00 0.00 0.00 0.00 0.00 0.00 0.00 0.00 0.00 0.00 0.00
0.01 0.01 0.01 0.01 0.01 0.00 0.00 0.00 0.01 0.02 0.00 0.00 0.00 0.00 0.00 0.00 0.00 0.00 0.00 0.00 0.00 0.00 0.00 0.00 0.00 0.00 0.00 0.00 0.00 0.00 0.00 0.00 0.00 0.00 0.00 0.00 0.00 0.00 0.00 0.00 0.00 0.00 0.00 0.00 0.00 0.00 0.00
0.01 0.01 0.00 0.00 0.00 0.00 0.00 0.00 0.00 0.01 0.00 0.00 0.00 0.00 0.00 0.00 0.00 0.00 0.00 0.00 0.00 0.00 0.00 0.00 0.00 0.00 0.00 0.00 0.00 0.00 0.00 0.00 0.00 0.00 0.00 0.00 0.00 0.00 0.00 0.00 0.00 0.00 0.00 0.00 0.00 0.00 0.00
0.00 0.00 0.00 0.00 0.00 0.00 0.00 0.00 0.00 0.00 0.00 0.00 0.00 0.00 0.00 0.00 0.00 0.00 0.00 0.00 0.00 0.00 0.00 0.00 0.00 0.00 0.00 0.00 0.00 0.00 0.00 0.00 0.00 0.00 0.00 0.00 0.00 0.00 0.00 0.00 0.00 0.00 0.00 0.00 0.00 0.00 0.00
0.00 0.00 0.00 0.00 0.00 0.00 0.00 0.00 0.00 0.00 0.00 0.00 0.00 0.00 0.00 0.00 0.00 0.00 0.00 0.00 0.00 0.00 0.00 0.00 0.00 0.00 0.00 0.00 0.00 0.00 0.00 0.00 0.00 0.00 0.00 0.00 0.00 0.00 0.00 0.00 0.00 0.00 0.00 0.00 0.00 0.00 0.00
0.00 0.00 0.00 0.00 0.00 0.00 0.00 0.00 0.00 0.00 0.00 0.00 0.00 0.00 0.00 0.00 0.00 0.00 0.00 0.00 0.00 0.00 0.00 0.00 0.00 0.00 0.00 0.00 0.00 0.00 0.00 0.00 0.00 0.00 0.00 0.00 0.00 0.00 0.00 0.00 0.00 0.00 0.00 0.00 0.00 0.00 0.00
0.00 0.00 0.00 0.00 0.00 0.00 0.00 0.00 0.00 0.00 0.00 0.00 0.00 0.00 0.00 0.00 0.00 0.00 0.00 0.00 0.00 0.00 0.00 0.00 0.00 0.00 0.00 0.00 0.00 0.00 0.00 0.00 0.00 0.00 0.00 0.00 0.00 0.00 0.00 0.00 0.00 0.00 0.00 0.00 0.00 0.00 0.00
0.00 0.00 0.00 0.00 0.00 0.00 0.01 0.00 0.00 0.00 0.00 0.00 0.00 0.00 0.00 0.00 0.00 0.00 0.00 0.00 0.00 0.00 0.00 0.00 0.00 0.00 0.00 0.00 0.00 0.00 0.00 0.00 0.00 0.00 0.00 0.00 0.00 0.00 0.00 0.00 0.00 0.00 0.00 0.00 0.00 0.00 0.00
0.00 0.00 0.00 0.00 0.00 0.00 0.00 0.00 0.00 0.00 0.00 0.00 0.00 0.00 0.00 0.00 0.00 0.00 0.00 0.00 0.00 0.00 0.00 0.00 0.00 0.00 0.00 0.00 0.00 0.00 0.00 0.00 0.00 0.00 0.00 0.00 0.00 0.00 0.00 0.00 0.00 0.00 0.00 0.00 0.00 0.00 0.00
MSLP
1020.10 1020.31 1020.40 1020.51 1020.56 1020.68 1020.65 1020.54 1020.52 1020.56 1020.46 1020.35 1020.30 1020.22 1020.17 1020.10 1020.17 1020.18 1020.11 1020.03 1019.85 1019.74 1019.56 1019.32 1019.00 1018.67 1018.68 1019.88 1021.23 1020.69 1020.15 1019.57 1018.96 1018.82 1019.14 1019.18 1019.56 1020.45 1021.94 1022.92 1023.56 1024.30 1025.31 1025.84 1026.27 1026.52 1027.23
1020.04 1020.14 1020.28 1020.41 1020.53 1020.66 1020.67 1020.54 1020.55 1020.63 1020.56 1020.50 1020.38 1020.42 1020.41 1020.33 1020.23 1020.26 1020.18 1020.05 1019.90 1019.77 1019.57 1019.30 1018.96 1018.64 1018.89 1020.64 1021.25 1021.00 1020.54 1019.74 1019.54 1019.38 1019.55 1019.49 1019.93 1020.60 1022.28 1023.50 1024.11 1024.99 1025.49 1026.13 1026.49 1026.86 1027.27
1019.89 1020.00 1020.17 1020.31 1020.51 1020.59 1020.71 1020.64 1020.68 1020.73 1020.59 1020.56 1020.55 1020.52 1020.54 1020.50 1020.37 1020.24 1020.19 1020.05 1019.87 1019.70 1019.50 1019.26 1019.02 1018.98 1020.18 1021.49 1021.25 1021.00 1020.65 1020.31 1020.11 1019.79 1019.90 1020.09 1020.14 1020.69 1022.45 1023.98 1024.78 1025.14 1025.79 1026.29 1026.69 1026.96 1027.43
1019.64 1019.86 1020.04 1020.21 1020.42 1020.49 1020.65 1020.64 1020.85 1020.80 1020.71 1020.61 1020.57 1020.56 1020.58 1020.54 1020.44 1020.32 1020.16 1019.98 1019.79 1019.60 1019.37 1019.26 1019.13 1019.41 1021.09 1021.20 1021.17 1021.04 1020.77 1020.30 1020.24 1019.95 1020.04 1020.29 1020.46 1021.57 1023.03 1024.14 1024.79 1025.20 1025.62 1026.32 1026.69 1026.92 1027.54
1019.47 1019.67 1019.89 1020.12 1020.25 1020.44 1020.56 1020.69 1020.81 1020.82 1020.72 1020.64 1020.62 1020.58 1020.57 1020.53 1020.46 1020.34 1020.16 1019.91 1019.72 1019.54 1019.37 1019.24 1019.46 1019.86 1021.57 1021.23 1021.46 1021.75 1021.68 1021.40 1020.83 1020.42 1020.50 1020.44 1020.92 1022.91 1023.84 1024.48 1025.32 1025.81 1026.12 1026.56 1026.68 1027.03 1027.52
1019.29 1019.48 1019.73 1019.89 1020.16 1020.36 1020.45 1020.56 1020.71 1020.80 1020.73 1020.69 1020.63 1020.58 1020.53 1020.52 1020.44 1020.28 1020.10 1019.90 1019.79 1019.59 1019.76 1019.55 1020.23 1021.15 1022.08 1022.75 1022.44 1022.22 1021.91 1021.68 1021.36 1021.04 1021.09 1021.53 1022.63 1023.84 1024.70 1024.94 1025.66 1026.05 1026.39 1026.74 1027.06 1027.36 1027.65
1018.92 1019.25 1019.51 1019.72 1019.92 1020.20 1020.36 1020.51 1020.53 1020.65 1020.71 1020.67 1020.62 1020.55 1020.56 1020.52 1020.42 1020.24 1020.22 1020.15 1020.78 1020.99 1021.63 1022.52 1022.86 1023.01 1023.16 1023.00 1022.64 1022.60 1022.54 1022.14 1021.80 1022.12 1023.00 1023.36 1023.96 1025.21 1025.67 1025.59 1025.75 1026.05 1026.46 1026.85 1026.88 1027.24 1027.72
1018.50 1018.86 1019.29 1019.58 1019.68 1019.92 1020.20 1020.38 1020.48 1020.55 1020.62 1020.61 1020.63 1020.60 1020.57 1020.49 1020.40 1020.35 1020.56 1021.37 1021.79 1022.15 1023.09 1023.33 1023.25 1023.34 1023.50 1023.60 1023.22 1023.08 1022.70 1022.97 1022.98 1023.75 1023.98 1024.39 1025.34 1026.13 1026.12 1026.08 1026.20 1026.48 1026.87 1027.08 1027.15 1027.56 1027.97
1018.07 1018.49 1018.82 1019.28 1019.47 1019.62 1019.92 1020.15 1020.44 1020.51 1020.61 1020.63 1020.59 1020.68 1020.68 1020.52 1020.46 1020.81 1021.39 1022.10 1022.15 1021.97 1022.75 1023.72 1023.69 1023.76 1023.99 1023.82 1024.32 1024.32 1023.97 1023.98 1024.28 1024.73 1025.22 1025.63 1026.66 1026.55 1026.58 1026.87 1027.04 1027.32 1027.67 1027.95 1028.34 1028.26 1028.46
1017.55 1018.11 1018.43 1018.84 1019.09 1019.25 1019.65 1019.87 1020.26 1020.48 1020.49 1020.59 1020.74 1020.68 1020.58 1020.49 1020.98 1021.66 1022.10 1022.27 1022.22 1022.22 1022.96 1024.04 1023.81 1023.95 1024.11 1024.02 1024.57 1024.50 1024.43 1024.61 1025.03 1025.81 1026.16 1026.93 1027.08 1027.08 1027.31 1027.68 1027.93 1028.21 1028.31 1028.46 1028.77 1029.16 1029.52
1016.77 1017.44 1018.05 1018.38 1018.82 1019.03 1019.20 1019.56 1019.91 1020.44 1020.49 1020.54 1020.60 1020.59 1020.50 1020.46 1021.20 1022.07 1022.67 1022.45 1022.29 1022.29 1023.35 1024.38 1024.03 1023.83 1023.98 1024.39 1024.95 1024.76 1024.66 1024.44 1025.48 1026.33 1026.75 1027.85 1027.79 1027.84 1028.08 1028.58 1028.56 1028.79 1028.87 1029.13 1029.38 1029.87 1030.39
1016.08 1016.77 1017.42 1017.89 1018.30 1018.73 1019.01 1019.35 1019.64 1020.04 1020.48 1020.56 1020.51 1020.60 1020.59 1020.90 1021.68 1022.48 1022.40 1022.31 1022.41 1022.77 1023.25 1024.01 1024.08 1024.22 1024.46 1024.95 1025.17 1025.12 1024.91 1024.97 1025.97 1026.49 1027.14 1028.09 1028.36 1028.58 1028.86 1029.06 1029.03 1029.20 1029.44 1029.85 1030.32 1030.73 1031.22
1015.45 1015.97 1016.72 1017.25 1017.78 1018.34 1018.69 1019.16 1019.34 1019.66 1020.41 1020.63 1020.65 1020.71 1021.00 1021.33 1022.14 1022.25 1022.16 1022.51 1022.93 1022.90 1023.76 1024.17 1024.30 1024.45 1024.89 1025.54 1025.69 1025.74 1025.71 1025.98 1026.52 1027.07 1027.97 1028.67 1029.14 1029.31 1029.38 1029.48 1029.47 1029.51 1029.83 1030.41 1031.03 1031.34 1031.70
1014.53 1015.23 1015.89 1016.56 1017.13 1017.75 1018.30 1018.80 1019.17 1019.33 1020.02 1020.73 1021.00 1020.94 1021.67 1022.02 1022.13 1022.07 1022.23 1022.53 1023.06 1023.10 1023.51 1024.01 1024.29 1024.57 1025.03 1025.66 1026.02 1026.06 1026.29 1026.88 1027.16 1027.39 1028.45 1029.17 1029.59 1029.92 1029.90 1030.02 1030.03 1030.20 1030.32 1031.17 1032.19 1032.67 1032.45
1013.67 1014.26 1015.09 1015.81 1016.46 1017.15 1017.71 1018.16 1018.77 1019.35 1019.70 1020.54 1021.41 1021.62 1021.97 1022.29 1022.22 1022.16 1022.34 1023.01 1022.68 1022.91 1023.19 1023.93 1024.49 1024.64 1025.14 1025.64 1026.07 1026.19 1026.72 1027.33 1027.60 1027.82 1028.56 1029.30 1029.89 1030.38 1030.53 1030.65 1030.93 1031.17 1031.27 1031.63 1032.32 1033.61 1033.52
1012.90 1013.36 1014.14 1014.84 1015.56 1016.39 1017.12 1017.66 1018.36 1018.92 1019.79 1020.80 1021.41 1021.77 1022.14 1022.08 1022.14 1022.33 1022.69 1023.00 1023.10 1023.10 1023.26 1023.51 1024.24 1024.71 1025.21 1025.72 1026.17 1026.34 1026.91 1027.74 1028.18 1028.46 1028.78 1029.81 1030.39 1030.86 1030.97 1031.23 1031.52 1031.54 1032.07 1032.66 1033.42 1034.19 1033.90
1012.02 1012.50 1013.25 1013.84 1014.61 1015.32 1016.20 1017.03 1017.79 1018.74 1019.85 1020.82 1021.56 1021.85 1022.05 1021.99 1022.14 1022.50 1023.14 1023.15 1023.32 1023.54 1023.54 1023.73 1023.98 1024.76 1025.26 1025.93 1026.36 1026.83 1027.55 1028.30 1028.44 1028.88 1029.11 1029.89 1030.83 1031.91 1031.96 1032.02 1032.04 1032.89 1033.25 1034.01 1034.30 1034.49 1034.66
1011.25 1011.64 1012.15 1012.88 1013.49 1014.40 1015.21 1016.07 1017.19 1018.48 1019.83 1021.12 1021.43 1021.82 1021.88 1021.67 1022.57 1023.27 1023.51 1023.15 1023.40 1023.82 1023.84 1024.01 1024.16 1024.58 1025.32 1026.20 1026.92 1027.25 1027.61 1028.22 1028.95 1029.21 1030.00 1030.81 1031.67 1032.41 1032.36 1032.83 1033.03 1033.24 1033.70 1033.98 1035.01 1035.35 1035.26
1010.51 1010.72 1011.16 1011.70 1012.31 1013.18 1014.22 1015.12 1016.42 1017.80 1018.92 1020.32 1021.07 1021.82 1021.78 1021.54 1022.59 1023.42 1023.65 1023.57 1023.67 1024.18 1024.29 1024.54 1024.99 1025.16 1025.80 1026.55 1027.74 1027.94 1028.26 1028.98 1029.26 1029.59 1030.12 1030.83 1032.18 1032.87 1033.17 1034.05 1034.07 1033.98 1033.98 1034.10 1034.76 1034.59 1033.88
1009.96 1010.29 1010.33 1010.63 1011.24 1012.33 1013.25 1014.43 1015.66 1016.90 1018.10 1018.95 1020.31 1021.43 1022.13 1022.14 1022.57 1022.61 1023.32 1023.77 1024.21 1024.44 1024.80 1025.05 1025.75 1026.02 1026.74 1027.55 1028.13 1028.78 1029.33 1029.92 1030.20 1030.47 1030.77 1031.22 1032.56 1033.13 1033.37 1033.40 1033.80 1034.81 1034.56 1034.38 1034.25 1034.34 1032.36
1009.57 1010.07 1010.09 1010.48 1010.72 1011.40 1012.19 1013.47 1014.91 1016.18 1017.27 1018.10 1019.22 1020.34 1020.86 1022.23 1022.46 1022.40 1022.41 1023.13 1023.96 1024.68 1025.20 1025.75 1026.46 1026.82 1027.51 1028.61 1029.26 1029.75 1030.30 1030.96 1031.32 1031.72 1032.11 1032.67 1033.94 1034.56 1034.19 1033.86 1034.23 1034.41 1034.30 1034.01 1033.68 1032.25 1032.31
1009.28 1009.69 1010.25 1010.54 1011.03 1011.54 1011.79 1012.87 1014.18 1015.73 1016.97 1017.54 1018.80 1019.87 1021.12 1021.97 1022.00 1022.69 1022.88 1023.17 1023.53 1024.94 1025.16 1026.25 1026.95 1027.55 1028.23 1028.83 1029.44 1030.33 1031.24 1032.16 1032.21 1032.92 1033.34 1034.04 1034.56 1035.51 1035.04 1034.39 1034.79 1034.55 1033.59 1032.74 1032.49 1032.22 1031.50
1009.35 1009.90 1010.34 1010.53 1010.91 1011.33 1012.29 1013.36 1014.16 1015.44 1016.20 1017.39 1018.81 1018.96 1019.11 1022.14 1022.60 1023.00 1022.97 1023.23 1023.51 1024.24 1025.87 1025.98 1026.74 1028.10 1029.19 1029.94 1030.43 1031.23 1031.85 1032.62 1032.62 1033.35 1034.31 1034.93 1035.50 1036.12 1035.59 1035.34 1035.05 1034.03 1031.26 1031.68 1031.72 1031.37 1031.37
1009.99 1010.21 1010.47 1010.58 1011.24 1011.85 1012.33 1013.38 1014.52 1015.15 1015.71 1016.30 1017.56 1017.96 1019.15 1021.89 1022.60 1023.08 1023.13 1023.50 1023.96 1024.94 1025.90 1027.29 1027.72 1028.55 1030.47 1030.75 1031.53 1032.17 1032.98 1033.80 1034.07 1034.42 1034.39 1035.16 1035.49 1035.99 1036.09 1035.92 1034.64 1031.76 1031.66 1032.04 1032.14 1032.03 1032.06
1010.10 1010.41 1010.78 1010.51 1011.19 1011.93 1012.35 1013.12 1014.24 1015.02 1015.72 1016.42 1017.32 1017.78 1018.49 1021.15 1022.29 1023.09 1023.51 1024.46 1025.02 1026.11 1027.31 1028.45 1029.84 1030.20 1030.30 1031.00 1031.53 1032.67 1033.61 1034.85 1035.55 1036.17 1035.69 1035.81 1035.68 1036.13 1036.83 1036.66 1033.47 1031.12 1032.89 1033.27 1033.48 1032.52 1032.59
1009.36 1010.45 1010.94 1010.78 1011.32 1011.77 1012.26 1012.97 1013.86 1015.06 1015.62 1016.33 1017.72 1017.34 1018.26 1020.82 1022.87 1022.84 1023.62 1024.84 1025.62 1027.19 1028.75 1030.15 1030.98 1030.87 1030.72 1030.88 1031.55 1032.89 1034.32 1035.18 1036.13 1036.97 1036.77 1036.36 1035.92 1035.99 1037.05 1037.02 1034.95 1032.56 1033.16 1034.18 1034.61 1034.24 1033.88
1009.56 1010.53 1010.56 1010.83 1011.07 1011.50 1012.12 1012.84 1013.89 1014.81 1015.43 1016.18 1018.00 1017.87 1018.62 1021.62 1024.34 1024.22 1024.45 1025.06 1025.70 1027.55 1029.21 1030.71 1031.38 1031.36 1030.89 1031.17 1031.94 1033.13 1034.12 1035.37 1036.12 1036.61 1037.15 1036.91 1036.66 1035.78 1035.91 1036.04 1033.88 1032.75 1033.91 1034.95 1036.15 1035.66 1035.47
1009.66 1010.01 1010.09 1009.73 1010.04 1010.93 1011.89 1012.93 1013.91 1014.76 1015.50 1016.00 1018.80 1018.79 1018.82 1022.21 1025.11 1025.88 1026.21 1026.14 1026.85 1027.28 1028.50 1030.73 1031.50 1031.58 1031.51 1031.66 1031.94 1032.65 1033.84 1034.55 1035.60 1035.55 1035.45 1035.11 1035.54 1035.69 1035.79 1036.02 1034.70 1033.03 1035.00 1035.88 1035.60 1035.62 1036.03
1009.67 1009.90 1009.72 1009.86 1010.25 1010.89 1011.73 1013.05 1014.04 1014.61 1015.49 1015.91 1018.18 1019.10 1019.59 1021.90 1026.58 1027.62 1027.98 1027.80 1027.61 1027.66 1028.09 1029.86 1029.52 1029.60 1029.77 1030.81 1031.64 1032.20 1033.28 1034.49 1035.02 1035.44 1035.03 1034.99 1033.17 1033.40 1033.52 1032.62 1032.94 1033.81 1034.63 1035.32 1035.70 1035.80 1036.40
Thickness
5641 5641 5642 5642 5643 5644 5644 5646 5646 5646 5647 5648 5648 5648 5648 5648 5648 5648 5647 5647 5647 5647 5647 5648 5650 5651 5651 5634 5625 5632 5635 5640 5644 5646 5642 5644 5641 5633 5623 5614 5613 5611 5598 5592 5588 5588 5584
5638 5639 5639 5640 5640 5640 5641 5643 5643 5643 5644 5645 5646 5645 5645 5645 5645 5646 5646 5645 5645 5645 5646 5647 5649 5651 5649 5631 5628 5630 5633 5638 5638 5640 5637 5639 5637 5631 5614 5603 5609 5596 5592 5588 5588 5586 5585
5634 5635 5636 5636 5636 5637 5637 5639 5639 5639 5641 5642 5642 5643 5642 5643 5643 5643 5644 5644 5644 5645 5645 5646 5647 5647 5632 5622 5627 5629 5631 5632 5633 5635 5633 5631 5633 5630 5612 5599 5592 5593 5593 5586 5585 5585 5580
5631 5632 5632 5633 5633 5633 5634 5635 5634 5635 5636 5638 5640 5640 5640 5640 5640 5641 5642 5643 5644 5644 5645 5644 5644 5641 5622 5624 5624 5625 5628 5631 5630 5632 5630 5627 5625 5615 5605 5595 5592 5592 5590 5598 5581 5580 5570
5627 5627 5628 5628 5629 5629 5630 5630 5630 5631 5632 5634 5635 5636 5637 5637 5637 5638 5640 5641 5642 5643 5643 5643 5640 5635 5619 5621 5617 5616 5617 5619 5620 5625 5622 5624 5618 5600 5596 5592 5589 5574 5592 5583 5585 5571 5568
5621 5622 5623 5624 5624 5624 5625 5626 5627 5627 5629 5630 5631 5632 5633 5633 5634 5635 5637 5638 5638 5640 5638 5638 5631 5628 5610 5603 5605 5607 5609 5610 5614 5616 5615 5609 5595 5586 5578 5588 5593 5589 5582 5570 5567 5565 5560
5616 5616 5618 5619 5620 5620 5620 5622 5623 5624 5624 5626 5627 5628 5628 5629 5630 5632 5634 5633 5628 5626 5614 5603 5602 5601 5599 5598 5600 5600 5599 5602 5606 5596 5589 5585 5587 5579 5574 5573 5569 5563 5568 5567 5563 5556 5554
5611 5612 5612 5613 5615 5616 5615 5617 5617 5619 5620 5621 5622 5623 5623 5624 5625 5626 5626 5618 5616 5615 5596 5596 5597 5595 5592 5588 5593 5592 5593 5596 5591 5580 5580 5576 5570 5556 5559 5561 5564 5563 5558 5554 5552 5543 5541
5605 5606 5607 5608 5610 5611 5611 5612 5611 5612 5614 5615 5616 5616 5617 5618 5619 5618 5613 5608 5608 5608 5596 5591 5588 5586 5582 5582 5572 5572 5576 5578 5573 5569 5560 5567 5551 5550 5556 5551 5553 5547 5545 5541 5539 5528 5524
5599 5600 5601 5602 5604 5606 5606 5607 5606 5606 5608 5609 5609 5610 5611 5612 5609 5605 5602 5601 5601 5601 5588 5589 5586 5579 5578 5575 5569 5568 5566 5567 5558 5554 5544 5537 5539 5545 5542 5539 5532 5546 5520 5524 5522 5515 5530
5596 5595 5595 5596 5598 5600 5601 5601 5600 5599 5601 5602 5603 5604 5605 5605 5600 5596 5593 5593 5594 5593 5581 5574 5574 5574 5571 5569 5561 5563 5559 5561 5551 5543 5546 5535 5531 5532 5532 5518 5516 5525 5511 5509 5505 5494 5486
5591 5590 5590 5590 5592 5593 5594 5594 5594 5593 5593 5594 5595 5595 5596 5595 5592 5586 5586 5586 5585 5588 5574 5575 5565 5562 5566 5553 5551 5548 5553 5547 5536 5536 5524 5516 5513 5511 5509 5503 5505 5502 5502 5489 5474 5472 5473
5585 5585 5586 5586 5586 5586 5588 5587 5588 5588 5584 5584 5586 5586 5585 5585 5582 5580 5581 5577 5578 5577 5567 5568 5563 5554 5549 5539 5542 5534 5536 5529 5534 5535 5533 5512 5500 5500 5500 5504 5499 5498 5491 5503 5507 5498 5512
5584 5581 5582 5581 5581 5581 5582 5581 5580 5582 5578 5574 5574 5577 5573 5572 5572 5572 5571 5574 5576 5572 5565 5546 5548 5546 5546 5528 5526 5526 5528 5519 5513 5513 5497 5502 5519 5486 5486 5489 5492 5482 5485 5476 5476 5489 5480
5579 5580 5578 5577 5577 5575 5575 5576 5574 5572 5571 5566 5562 5562 5561 5560 5562 5563 5563 5557 5568 5566 5556 5542 5537 5549 5540 5528 5526 5526 5516 5509 5503 5503 5496 5480 5513 5475 5474 5471 5472 5469 5474 5456 5420 5411 5425
5574 5578 5575 5575 5574 5571 5570 5569 5567 5567 5560 5552 5551 5551 5550 5553 5554 5553 5552 5561 5552 5548 5541 5543 5555 5540 5540 5528 5527 5525 5518 5500 5499 5490 5484 5468 5477 5463 5466 5462 5457 5460 5449 5449 5426 5438 5452
5568 5572 5571 5572 5570 5569 5567 5564 5561 5559 5550 5541 5540 5543 5541 5545 5545 5540 5544 5541 5539 5531 5536 5540 5536 5525 5527 5521 5514 5510 5504 5486 5486 5482 5480 5464 5462 5463 5452 5447 5450 5435 5415 5406 5405 5401 5416
5560 5564 5567 5567 5569 5567 5565 5561 5556 5550 5541 5533 5531 5537 5534 5537 5531 5512 5520 5531 5530 5522 5523 5523 5523 5523 5514 5499 5504 5500 5502 5492 5470 5475 5461 5453 5418 5436 5461 5419 5421 5427 5406 5395 5415 5407 5354
5559 5559 5561 5565 5567 5566 5563 5558 5552 5545 5539 5530 5528 5519 5523 5528 5522 5513 5515 5518 5518 5513 5513 5512 5509 5508 5500 5492 5479 5487 5486 5463 5463 5466 5455 5442 5426 5426 5448 5413 5404 5402 5389 5371 5352 5344 5367
5554 5553 5556 5562 5564 5561 5560 5553 5548 5543 5535 5530 5522 5523 5512 5513 5507 5515 5508 5511 5506 5500 5498 5499 5493 5492 5480 5479 5460 5452 5470 5453 5449 5452 5454 5443 5402 5442 5452 5446 5400 5387 5391 5385 5386 5362 5392
5547 5546 5550 5553 5555 5557 5556 5550 5545 5537 5532 5528 5523 5522 5518 5503 5509 5510 5517 5504 5501 5496 5489 5487 5483 5480 5464 5466 5466 5466 5456 5442 5436 5431 5419 5420 5413 5381 5384 5379 5381 5389 5394 5381 5382 5402 5389
5540 5540 5539 5543 5545 5544 5547 5543 5539 5529 5522 5521 5515 5509 5494 5489 5493 5497 5498 5500 5500 5482 5477 5479 5466 5460 5458 5470 5467 5459 5428 5414 5429 5413 5392 5376 5389 5352 5363 5379 5366 5357 5375 5386 5390 5391 5386
5530 5528 5528 5532 5534 5536 5532 5530 5527 5520 5517 5509 5500 5505 5510 5480 5475 5489 5490 5487 5489 5484 5469 5473 5470 5459 5451 5452 5434 5417 5406 5398 5416 5404 5381 5378 5359 5359 5382 5336 5334 5387 5385 5388 5371 5350 5375
5514 5516 5518 5522 5522 5522 5522 5517 5511 5509 5509 5510 5504 5505 5500 5476 5473 5480 5478 5483 5481 5478 5466 5447 5452 5458 5422 5409 5403 5398 5383 5375 5374 5377 5381 5377 5380 5376 5347 5330 5371 5408 5330 5348 5371 5345 5347
5505 5505 5507 5515 5513 5511 5513 5512 5505 5503 5502 5500 5496 5499 5496 5477 5473 5474 5471 5464 5460 5451 5441 5435 5415 5411 5410 5411 5420 5396 5387 5373 5345 5343 5352 5348 5366 5356 5330 5282 5364 5396 5341 5336 5344 5367 5323
5503 5497 5497 5501 5501 5502 5503 5502 5499 5493 5493 5492 5486 5494 5491 5478 5475 5477 5468 5462 5457 5444 5426 5404 5397 5398 5403 5413 5418 5414 5396 5381 5367 5331 5327 5334 5331 5341 5289 5299 5329 5362 5323 5280 5282 5337 5278
5490 5487 5495 5493 5494 5495 5494 5494 5492 5489 5489 5489 5480 5486 5485 5467 5441 5454 5463 5461 5447 5430 5413 5387 5387 5387 5389 5402 5407 5399 5397 5332 5369 5343 5311 5313 5312 5332 5326 5320 5325 5320 5287 5260 5306 5326 5259
5481 5484 5489 5497 5498 5496 5493 5490 5487 5486 5484 5486 5470 5474 5480 5451 5429 5424 5423 5431 5426 5428 5434 5383 5385 5378 5380 5393 5388 5362 5332 5335 5320 5313 5314 5322 5317 5294 5307 5299 5304 5291 5271 5309 5275 5240 5235
5474 5477 5483 5488 5491 5492 5491 5484 5482 5483 5479 5481 5469 5465 5464 5448 5413 5405 5402 5405 5407 5407 5409 5381 5394 5377 5382 5365 5342 5328 5334 5297 5311 5350 5290 5333 5334 5321 5328 5328 5271 5263 5259 5239 5230 5231 5220